Change the Weather History Date:

Thursday, November 29, 2012

  Actual Average (KEYE) Record (KEYE)
Temperature  
Mean Temperature 37 °F 38 °F  
Max Temperature 49 °F 45 °F 68 °F (1998)
Min Temperature 25 °F 31 °F 19 °F (2013)
Degree Days  
Heating Degree Days 28 27  
Month to date heating degree days 604  
Since 1 July heating degree days 996  
Cooling Degree Days 0 0  
Month to date cooling degree days 0  
Year to date cooling degree days 1058  
Moisture  
Dew Point 25 °F    
Average Humidity 64    
Maximum Humidity 83    
Minimum Humidity 45    
Precipitation  
Precipitation 0.00 in 0.12 in 0.80 in (2011)
Month to date precipitation 3.58  
Year to date precipitation 37.59  
Sea Level Pressure  
Sea Level Pressure 30.27 in    
Wind  
Wind Speed 6 mph (South)    
Max Wind Speed 16 mph    
Max Gust Speed 22 mph    
Visibility 10 miles    
Events      
T = Trace of Precipitation, MM = Missing Value Source: NWS Daily Summary

Daily Weather History Graph

Daily Weather History Graph

Search for Another Location

Airport or City:

Trip Planner

Search our weather history database for the weather conditions in past years. The results will help you decide how hot, cold, wet, or windy it might be!

Date:

Astronomy

Nov. 29, 2012 Rise Set
Actual Time 7:46 AM EST 5:20 PM EST
Civil Twilight 7:16 AM EST 5:50 PM EST
Nautical Twilight 6:42 AM EST 6:24 PM EST
Astronomical Twilight 6:10 AM EST 6:56 PM EST
Moon 6:23 PM EST (11/29) 8:32 AM EST (11/29)
Length of Visible Light 10h 34m
Length of Day
9h 34m
Full, 99% of the Moon is Illuminated
Nov 29
Full
Dec 6
Last Quarter
Dec 13
New
Dec 20
First Quarter
Dec 28
Full

Hourly Weather History & Observations

Time (EST) Temp. Windchill Dew Point Humidity Pressure Visibility Wind Dir Wind Speed Gust Speed Precip Events Conditions
12:15 AM 25.7 °F 21.5 °F 21.0 °F 82% 30.36 in 7.0 mi South 3.5 mph - N/A   Clear
12:35 AM 26.4 °F 22.4 °F 21.4 °F 81% 30.36 in 7.0 mi South 3.5 mph - N/A   Clear
12:55 AM 25.7 °F 21.5 °F 21.2 °F 83% 30.36 in 7.0 mi South 3.5 mph - N/A   Clear
1:35 AM 26.2 °F 20.7 °F 21.0 °F 81% 30.35 in 10.0 mi South 4.6 mph - N/A   Clear
2:15 AM 28.0 °F 22.8 °F 21.9 °F 78% 30.35 in 10.0 mi South 4.6 mph - N/A   Clear
2:35 AM 26.2 °F 22.1 °F 20.5 °F 79% 30.35 in 10.0 mi South 3.5 mph - N/A   Clear
2:55 AM 28.2 °F 22.0 °F 22.1 °F 78% 30.35 in 10.0 mi South 5.8 mph - N/A   Clear
3:15 AM 26.8 °F 21.4 °F 20.7 °F 78% 30.35 in 10.0 mi South 4.6 mph - N/A   Clear
3:35 AM 27.1 °F 23.2 °F 21.0 °F 78% 30.34 in 10.0 mi South 3.5 mph - N/A   Clear
3:55 AM 26.2 °F 20.7 °F 20.3 °F 78% 30.34 in 10.0 mi South 4.6 mph - N/A   Clear
4:15 AM 25.9 °F 20.3 °F 21.0 °F 82% 30.34 in 10.0 mi South 4.6 mph - N/A   Clear
4:35 AM 27.9 °F 22.6 °F 21.2 °F 76% 30.34 in 10.0 mi South 4.6 mph - N/A   Clear
4:55 AM 27.5 °F 22.2 °F 21.4 °F 78% 30.34 in 10.0 mi South 4.6 mph - N/A   Clear
5:15 AM 27.0 °F 23.0 °F 20.3 °F 76% 30.34 in 10.0 mi South 3.5 mph - N/A   Clear
5:35 AM 26.6 °F - 20.8 °F 79% 30.34 in 10.0 mi Calm Calm - N/A   Clear
5:55 AM 27.0 °F - 21.2 °F 79% 30.34 in 10.0 mi Calm Calm - N/A   Clear
6:15 AM 27.3 °F 23.4 °F 21.4 °F 78% 30.34 in 10.0 mi South 3.5 mph - N/A   Clear
6:55 AM 25.5 °F 18.7 °F 19.9 °F 79% 30.34 in 10.0 mi South 5.8 mph - N/A   Clear
7:15 AM 25.9 °F 20.3 °F 20.5 °F 80% 30.33 in 10.0 mi South 4.6 mph - N/A   Clear
7:35 AM 26.6 °F 20.0 °F 21.0 °F 79% 30.33 in 10.0 mi South 5.8 mph - N/A   Clear
7:55 AM 27.0 °F 20.5 °F 20.8 °F 78% 30.33 in 10.0 mi South 5.8 mph - N/A   Clear
8:15 AM 26.8 °F 21.4 °F 21.0 °F 79% 30.33 in 10.0 mi South 4.6 mph - N/A   Clear
8:35 AM 29.1 °F 23.0 °F 22.5 °F 76% 30.33 in 10.0 mi South 5.8 mph - N/A   Clear
8:55 AM 31.5 °F 23.5 °F 23.9 °F 74% 30.33 in 10.0 mi South 9.2 mph - N/A   Clear
9:15 AM 32.9 °F 25.9 °F 25.2 °F 73% 30.33 in 10.0 mi South 8.1 mph - N/A   Clear
9:35 AM 34.3 °F 28.4 °F 25.9 °F 71% 30.34 in 10.0 mi SSW 6.9 mph - N/A   Clear
9:55 AM 36.5 °F 30.3 °F 26.8 °F 68% 30.34 in 7.0 mi SSW 8.1 mph - N/A   Clear
10:15 AM 38.3 °F 30.9 °F 27.1 °F 64% 30.33 in 10.0 mi SSW 11.5 mph - N/A   Clear
10:35 AM 39.7 °F 32.7 °F 27.7 °F 62% 30.33 in 10.0 mi SSW 11.5 mph - N/A   Clear
10:55 AM 41.2 °F 35.0 °F 27.9 °F 59% 30.32 in 10.0 mi SSW 10.4 mph - N/A   Clear
11:15 AM 42.1 °F 35.7 °F 27.5 °F 56% 30.31 in 10.0 mi SSW 11.5 mph - N/A   Clear
11:35 AM 43.0 °F 35.7 °F 27.5 °F 54% 30.30 in 10.0 mi SW 15.0 mph - N/A   Clear
11:55 AM 43.9 °F 37.5 °F 27.5 °F 53% 30.29 in 10.0 mi SSW 12.7 mph 21.9 mph N/A   Clear
12:15 PM 44.8 °F 37.7 °F 27.7 °F 51% 30.28 in 10.0 mi SSW 16.1 mph 20.7 mph N/A   Clear
12:35 PM 45.7 °F 39.8 °F 27.7 °F 49% 30.27 in 10.0 mi SSW 12.7 mph 18.4 mph N/A   Clear
12:55 PM 47.3 °F - 28.2 °F 48% 30.26 in 10.0 mi South 10.4 mph 17.3 mph N/A   Clear
1:15 PM 47.3 °F - 28.0 °F 47% 30.26 in 10.0 mi SSW 10.4 mph - N/A   Clear
1:35 PM 47.8 °F - 27.7 °F 46% 30.25 in 10.0 mi SSW 12.7 mph - N/A   Clear
1:55 PM 47.8 °F - 27.9 °F 46% 30.24 in 10.0 mi SSW 9.2 mph - N/A   Clear
2:15 PM 48.4 °F - 27.9 °F 45% 30.23 in 10.0 mi South 12.7 mph - N/A   Clear
2:35 PM 49.1 °F - 28.4 °F 45% 30.23 in 10.0 mi South 10.4 mph - N/A   Clear
2:55 PM 48.7 °F - 28.6 °F 46% 30.21 in 10.0 mi South 12.7 mph 17.3 mph N/A   Clear
3:15 PM 48.6 °F - 28.4 °F 46% 30.21 in 10.0 mi South 9.2 mph - N/A   Clear
3:35 PM 47.8 °F - 28.2 °F 47% 30.21 in 10.0 mi South 10.4 mph - N/A   Clear
3:55 PM 47.1 °F - 28.4 °F 48% 30.21 in 10.0 mi South 5.8 mph - N/A   Clear
4:15 PM 46.8 °F - 28.4 °F 49% 30.21 in 10.0 mi South 8.1 mph - N/A   Clear
4:35 PM 46.4 °F 43.5 °F 28.8 °F 50% 30.21 in 10.0 mi South 5.8 mph - N/A   Clear
4:55 PM 45.1 °F 42.0 °F 28.9 °F 53% 30.20 in 10.0 mi South 5.8 mph - N/A   Clear
5:15 PM 44.6 °F 40.7 °F 28.4 °F 53% 30.19 in 10.0 mi South 6.9 mph - N/A   Clear
5:35 PM 42.6 °F 39.0 °F 28.4 °F 57% 30.19 in 10.0 mi SSE 5.8 mph - N/A   Clear
5:55 PM 41.5 °F 37.8 °F 28.4 °F 60% 30.19 in 10.0 mi SSE 5.8 mph - N/A   Clear
6:15 PM 41.0 °F 35.8 °F 28.4 °F 61% 30.19 in 10.0 mi SSE 8.1 mph - N/A   Clear
6:35 PM 41.5 °F 37.8 °F 28.2 °F 59% 30.19 in 10.0 mi SSE 5.8 mph - N/A   Clear
6:55 PM 41.2 °F 36.6 °F 28.2 °F 60% 30.19 in 10.0 mi SSE 6.9 mph - N/A   Clear
7:15 PM 41.7 °F 38.0 °F 28.0 °F 58% 30.18 in 10.0 mi SSE 5.8 mph - N/A   Clear
7:35 PM 41.4 °F 36.8 °F 28.0 °F 59% 30.18 in 10.0 mi SSE 6.9 mph - N/A   Clear
7:55 PM 40.6 °F 36.7 °F 27.9 °F 60% 30.18 in 10.0 mi SSE 5.8 mph - N/A   Clear
8:15 PM 41.0 °F 36.4 °F 28.0 °F 60% 30.19 in 10.0 mi South 6.9 mph - N/A   Clear
8:35 PM 41.2 °F 36.0 °F 28.0 °F 60% 30.18 in 10.0 mi SSE 8.1 mph - N/A   Clear
8:55 PM 41.7 °F 36.1 °F 28.0 °F 58% 30.17 in 10.0 mi SSE 9.2 mph - N/A   Clear
9:15 PM 42.1 °F 36.6 °F 27.9 °F 57% 30.16 in 10.0 mi SSE 9.2 mph - N/A   Clear
9:35 PM 42.6 °F 37.8 °F 27.5 °F 55% 30.16 in 10.0 mi South 8.1 mph - N/A   Clear
9:55 PM 42.6 °F 37.2 °F 27.5 °F 55% 30.16 in 10.0 mi SSE 9.2 mph - N/A   Clear
10:15 PM 42.8 °F 37.5 °F 27.5 °F 55% 30.16 in 10.0 mi South 9.2 mph - N/A   Clear
10:35 PM 42.3 °F 36.3 °F 27.7 °F 56% 30.16 in 10.0 mi South 10.4 mph - N/A   Clear
10:55 PM 41.9 °F 38.2 °F 27.9 °F 58% 30.16 in 10.0 mi South 5.8 mph - N/A   Mostly Cloudy
11:15 PM 41.0 °F 38.0 °F 27.5 °F 59% 30.16 in 10.0 mi South 4.6 mph - N/A   Scattered Clouds
11:55 PM 38.8 °F 36.5 °F 27.1 °F 63% 30.17 in 10.0 mi SSE 3.5 mph - N/A   Clear